When you browse on this site, cookies collect data to enhance your experience and personalize the content and advertising you see.
Visit our Privacy Policy to learn more. By continuing to use the site, you agree to this use of cookies and data.

Hourly Weather Dvubratskiy

Today, 11 July, Saturday

Time Temperature Precipitation Wind Pressure Humidity
00:00 +20°C° 0 mm 3 mps 754 mmHg 60%
01:00 +19°C° 0 mm 3 mps 754 mmHg 63%
02:00 +19°C° 0 mm 3 mps 755 mmHg 65%
03:00 +19°C° 0 mm 3 mps 755 mmHg 68%
04:00 +19°C° 0 mm 3 mps 755 mmHg 69%
05:00 +19°C° 0 mm 3 mps 755 mmHg 70%
06:00 +19°C° 0 mm 3 mps 755 mmHg 71%
07:00 +21°C° 0 mm 4 mps 755 mmHg 66%
08:00 +23°C° 0 mm 5 mps 755 mmHg 61%
09:00 +26°C° 0 mm 5 mps 755 mmHg 51%
10:00 +27°C° 0 mm 5 mps 754 mmHg 48%
11:00 +29°C° 0 mm 6 mps 754 mmHg 46%
12:00 +30°C° 0 mm 6 mps 754 mmHg 43%
13:00 +32°C° 0 mm 6 mps 753 mmHg 42%
14:00 +32°C° 0 mm 6 mps 753 mmHg 41%
15:00 +32°C° 0 mm 6 mps 752 mmHg 40%
16:00 +32°C° 0 mm 5 mps 752 mmHg 42%
17:00 +30°C° 0 mm 5 mps 752 mmHg 43%
18:00 +30°C° 0 mm 5 mps 752 mmHg 45%
19:00 +28°C° 0 mm 5 mps 752 mmHg 46%
20:00 +26°C° 0 mm 5 mps 752 mmHg 47%
21:00 +25°C° 0 mm 5 mps 752 mmHg 48%
22:00 +23°C° 0 mm 5 mps 751 mmHg 46%
23:00 +22°C° 0 mm 5 mps 751 mmHg 44%

Tomorrow, 12 July, Sunday

Time Temperature Precipitation Wind Pressure Humidity
00:00 +22°C° 0 mm 4 mps 751 mmHg 43%
01:00 +21°C° 0 mm 4 mps 751 mmHg 45%
02:00 +21°C° 0 mm 4 mps 751 mmHg 48%
03:00 +20°C° 0 mm 3 mps 750 mmHg 51%
04:00 +20°C° 0 mm 3 mps 750 mmHg 55%
05:00 +20°C° 0 mm 3 mps 750 mmHg 59%
06:00 +20°C° 0 mm 3 mps 750 mmHg 63%
07:00 +24°C° 0 mm 3 mps 750 mmHg 59%
08:00 +26°C° 0 mm 3 mps 749 mmHg 56%
09:00 +29°C° 0 mm 3 mps 749 mmHg 53%
10:00 +30°C° 0 mm 4 mps 749 mmHg 49%
11:00 +33°C° 0 mm 4 mps 748 mmHg 45%
12:00 +35°C° 0 mm 4 mps 748 mmHg 42%
13:00 +36°C° 0 mm 4 mps 748 mmHg 40%
14:00 +36°C° 0 mm 4 mps 747 mmHg 38%
15:00 +37°C° 0 mm 4 mps 747 mmHg 36%
16:00 +36°C° 0 mm 4 mps 747 mmHg 40%
17:00 +35°C° 0 mm 4 mps 746 mmHg 44%
18:00 +34°C° 0 mm 3 mps 746 mmHg 48%
19:00 +33°C° 0 mm 3 mps 746 mmHg 51%
20:00 +30°C° 0 mm 3 mps 746 mmHg 54%
21:00 +28°C° 0 mm 3 mps 746 mmHg 58%
22:00 +28°C° 0 mm 3 mps 745 mmHg 60%
23:00 +27°C° 0 mm 3 mps 745 mmHg 62%

Day after tomorrow, 13 July, Monday

Time Temperature Precipitation Wind Pressure Humidity
00:00 +26°C° 0 mm 3 mps 745 mmHg 64%
01:00 +25°C° 0.1 mm 3 mps 745 mmHg 66%
02:00 +24°C° 0.1 mm 3 mps 745 mmHg 69%
03:00 +24°C° 0.1 mm 3 mps 745 mmHg 72%
04:00 +23°C° 0.3 mm 2 mps 745 mmHg 74%
05:00 +23°C° 0.3 mm 2 mps 745 mmHg 76%
06:00 +23°C° 0.3 mm 2 mps 745 mmHg 78%
07:00 +25°C° 0 mm 2 mps 745 mmHg 73%
08:00 +26°C° 0 mm 2 mps 745 mmHg 67%
09:00 +28°C° 0 mm 2 mps 745 mmHg 62%
10:00 +29°C° 0 mm 2 mps 744 mmHg 56%
11:00 +31°C° 0 mm 3 mps 744 mmHg 50%
12:00 +34°C° 0 mm 3 mps 744 mmHg 44%
13:00 +35°C° 0 mm 3 mps 744 mmHg 41%
14:00 +36°C° 0 mm 2 mps 744 mmHg 38%
15:00 +36°C° 0 mm 2 mps 744 mmHg 35%
16:00 +36°C° 0 mm 2 mps 744 mmHg 39%
17:00 +35°C° 0 mm 3 mps 744 mmHg 43%
18:00 +34°C° 0 mm 4 mps 744 mmHg 47%
19:00 +30°C° 0.7 mm 4 mps 744 mmHg 57%
20:00 +27°C° 0.7 mm 5 mps 744 mmHg 67%
21:00 +23°C° 0.7 mm 6 mps 745 mmHg 77%
22:00 +23°C° 0.6 mm 5 mps 745 mmHg 79%
23:00 +22°C° 0.6 mm 5 mps 745 mmHg 81%

14 July, Tuesday

Time Temperature Precipitation Wind Pressure Humidity
00:00 +22°C° 0.6 mm 5 mps 744 mmHg 83%
01:00 +22°C° 0.2 mm 5 mps 745 mmHg 84%
02:00 +22°C° 0.2 mm 5 mps 745 mmHg 86%
03:00 +21°C° 0.2 mm 5 mps 745 mmHg 88%
04:00 +21°C° 0.6 mm 4 mps 745 mmHg 89%
05:00 +22°C° 0.6 mm 4 mps 745 mmHg 90%
06:00 +22°C° 0.6 mm 4 mps 745 mmHg 91%
07:00 +22°C° 0.6 mm 4 mps 746 mmHg 87%
08:00 +23°C° 0.6 mm 4 mps 746 mmHg 84%
09:00 +25°C° 0.6 mm 4 mps 747 mmHg 80%
10:00 +26°C° 0.9 mm 4 mps 747 mmHg 74%
11:00 +27°C° 0.9 mm 4 mps 747 mmHg 68%
12:00 +28°C° 0.9 mm 4 mps 748 mmHg 62%
13:00 +28°C° 0.6 mm 5 mps 748 mmHg 61%
14:00 +28°C° 0.6 mm 5 mps 748 mmHg 61%
15:00 +28°C° 0.6 mm 6 mps 748 mmHg 60%
16:00 +28°C° 0.1 mm 6 mps 748 mmHg 61%
17:00 +27°C° 0.1 mm 6 mps 748 mmHg 61%
18:00 +27°C° 0.1 mm 6 mps 748 mmHg 62%
19:00 +25°C° 0 mm 5 mps 749 mmHg 66%
20:00 +23°C° 0 mm 4 mps 749 mmHg 71%
21:00 +21°C° 0 mm 4 mps 750 mmHg 75%
22:00 +20°C° 0 mm 4 mps 750 mmHg 78%
23:00 +19°C° 0 mm 4 mps 751 mmHg 80%

15 July, Wednesday

Time Temperature Precipitation Wind Pressure Humidity
00:00 +19°C° 0 mm 4 mps 751 mmHg 83%
01:00 +18°C° 0 mm 4 mps 751 mmHg 81%
02:00 +18°C° 0 mm 4 mps 751 mmHg 80%
03:00 +18°C° 0 mm 4 mps 751 mmHg 78%
04:00 +18°C° 0 mm 4 mps 751 mmHg 76%
05:00 +18°C° 0 mm 4 mps 751 mmHg 75%
06:00 +19°C° 0 mm 4 mps 751 mmHg 73%
07:00 +20°C° 0 mm 5 mps 751 mmHg 68%
08:00 +22°C° 0 mm 5 mps 752 mmHg 63%
09:00 +24°C° 0 mm 6 mps 752 mmHg 59%
10:00 +26°C° 0 mm 6 mps 751 mmHg 55%
11:00 +27°C° 0 mm 6 mps 751 mmHg 50%
12:00 +28°C° 0 mm 6 mps 751 mmHg 46%
13:00 +28°C° 0 mm 6 mps 751 mmHg 45%
14:00 +29°C° 0 mm 6 mps 751 mmHg 45%
15:00 +29°C° 0 mm 6 mps 751 mmHg 44%
16:00 +28°C° 0 mm 5 mps 751 mmHg 46%
17:00 +28°C° 0 mm 5 mps 751 mmHg 49%
18:00 +27°C° 0 mm 5 mps 751 mmHg 51%
19:00 +25°C° 0 mm 4 mps 751 mmHg 58%
20:00 +22°C° 0 mm 3 mps 752 mmHg 64%
21:00 +20°C° 0 mm 2 mps 752 mmHg 70%
22:00 +20°C° 0 mm 2 mps 752 mmHg 73%
23:00 +20°C° 0 mm 1 mps 752 mmHg 75%

16 July, Thursday

Time Temperature Precipitation Wind Pressure Humidity
00:00 +19°C° 0 mm 1 mps 752 mmHg 78%
01:00 +19°C° 0 mm 1 mps 752 mmHg 79%
02:00 +18°C° 0 mm 1 mps 751 mmHg 80%
03:00 +18°C° 0 mm 1 mps 751 mmHg 82%
04:00 +18°C° 0 mm 1 mps 751 mmHg 82%
05:00 +19°C° 0 mm 1 mps 751 mmHg 82%
06:00 +19°C° 0 mm 1 mps 751 mmHg 81%
07:00 +21°C° 0 mm 1 mps 751 mmHg 73%
08:00 +23°C° 0 mm 1 mps 751 mmHg 65%
09:00 +25°C° 0 mm 1 mps 751 mmHg 57%
10:00 +26°C° 0 mm 1 mps 751 mmHg 51%
11:00 +28°C° 0 mm 2 mps 750 mmHg 45%
12:00 +29°C° 0 mm 2 mps 750 mmHg 39%
13:00 +29°C° 0 mm 2 mps 750 mmHg 37%
14:00 +30°C° 0 mm 2 mps 749 mmHg 35%
15:00 +30°C° 0 mm 2 mps 749 mmHg 33%
16:00 +30°C° 0 mm 2 mps 749 mmHg 36%
17:00 +29°C° 0 mm 3 mps 749 mmHg 39%
18:00 +29°C° 0 mm 3 mps 748 mmHg 42%
19:00 +27°C° 0 mm 3 mps 748 mmHg 45%
20:00 +25°C° 0 mm 3 mps 749 mmHg 48%
21:00 +24°C° 0 mm 3 mps 749 mmHg 51%
22:00 +22°C° 0 mm 3 mps 749 mmHg 52%
23:00 +22°C° 0 mm 3 mps 748 mmHg 52%
Show more